Printer-friendly version

IAU Minor Planet Center

Minor Planet Center

MPEC 2007-T02 : 2007 SV11

The following Minor Planet Electronic Circular may be linked-to from your own Web pages, but must not otherwise be redistributed electronically.


Read MPEC 2007-T01 Read MPEC 2007-T03


M.P.E.C. 2007-T02                                Issued 2007 Oct. 1, 17:09 UT

     The Minor Planet Electronic Circulars contain information on unusual
         minor planets and routine data on comets.  They are published
   on behalf of Commission 20 of the International Astronomical Union by the
          Minor Planet Center, Smithsonian Astrophysical Observatory,
                          Cambridge, MA 02138, U.S.A.

             Prepared using the Tamkin Foundation Computer Network

                              MPC@CFA.HARVARD.EDU
          URL http://www.cfa.harvard.edu/iau/mpc.html  ISSN 1523-6714

                                   2007 SV11

Observations:
     K07S11V* C2007 09 27.12120 16 18 58.42 +18 39 08.9          19.5 V ET002G96
     K07S11V  C2007 09 27.12560 16 18 59.43 +18 39 22.7          19.5 V ET002G96
     K07S11V  C2007 09 27.12994 16 19 00.33 +18 39 36.0          18.9 V ET002G96
     K07S11V  C2007 09 27.13429 16 19 01.27 +18 39 49.8          19.4 V ET002G96
     K07S11V  C2007 09 27.16132 16 19 07.17 +18 41 13.8          19.8 V ET002G96
     K07S11V  C2007 09 27.16174 16 19 07.24 +18 41 14.8          19.2 V ET002G96
     K07S11V  C2007 09 27.16215 16 19 07.35 +18 41 16.1          19.6 V ET002G96
     K07S11V  C2007 09 27.16257 16 19 07.46 +18 41 17.3          19.4 V ET002G96
     K07S11V VC2007 09 27.51023 16 20 24.04 +18 59 26.6          18.9 C ET002D35
     K07S11V VC2007 09 27.51134 16 20 24.31 +18 59 30.1                 ET002D35
     K07S11V  C2007 09 29.74494 16 28 34.85 +20 53 58.7          19.2 V ET002B03
     K07S11V  C2007 09 29.75284 16 28 36.55 +20 54 22.0          19.5 V ET002B03
     K07S11V  C2007 09 29.76075 16 28 38.32 +20 54 46.4          19.2 V ET002B03
     K07S11V  C2007 09 29.76869 16 28 39.98 +20 55 09.8          19.6 V ET002B03
     K07S11V  C2007 09 29.77660 16 28 41.68 +20 55 35.1          19.0 V ET002B03
     K07S11V  C2007 09 29.78450 16 28 43.43 +20 55 57.9          19.3 V ET002B03
     K07S11V  C2007 09 30.73899 16 32 12.30 +21 43 57.6                 ET002246
     K07S11V  C2007 09 30.74029 16 32 12.63 +21 44 02.3                 ET002246
     K07S11V  C2007 09 30.74090 16 32 12.72 +21 44 04.0                 ET002246
     K07S11V  C2007 09 30.74166 16 32 12.83 +21 44 06.3                 ET002246
     K07S11V  C2007 09 30.74240 16 32 13.00 +21 44 08.9                 ET002246
     K07S11V  C2007 09 30.74398 16 32 13.44 +21 44 12.9                 ET002246
     K07S11V  C2007 09 30.74470 16 32 13.55 +21 44 16.2                 ET002246
     K07S11V  C2007 09 30.74544 16 32 13.73 +21 44 17.4          18.3 R ET002246
     K07S11V  C2007 09 30.74746 16 32 14.15 +21 44 23.8          19.4 V ET002B03
     K07S11V  C2007 09 30.75536 16 32 15.83 +21 44 47.6          19.7 V ET002B03
     K07S11V  C2007 09 30.76725 16 32 18.35 +21 45 23.5          19.4 V ET002B03
     K07S11V  C2007 09 30.77522 16 32 20.09 +21 45 47.4          19.3 V ET002B03
     K07S11V  C2007 09 30.80434 16 32 26.33 +21 47 14.0          19.0 R ET002473
     K07S11V  C2007 09 30.81508 16 32 28.72 +21 47 45.8          19.4 R ET002473
     K07S11V  C2007 09 30.82127 16 32 30.12 +21 48 04.1          19.4 R ET002473
     K07S11V  C2007 10 01.05471 16 33 21.19 +21 59 45.1          19.5 R ET002734
     K07S11V  C2007 10 01.05926 16 33 22.11 +21 59 59.4          19.0 R ET002734
     K07S11V  C2007 10 01.06304 16 33 22.95 +22 00 10.1          19.6 R ET002734
     K07S11V  C2007 10 01.06607 16 33 23.56 +22 00 19.7          19.1 R ET002734
     K07S11V  C2007 10 01.06911 16 33 24.24 +22 00 29.1          19.2 R ET002734

Observer details:
246 Klet Observatory-KLENOT.  Observers J. Ticha, M. Tichy.  Measurer M. Tichy.
    1.06-m KLENOT Telescope + CCD.
473 Remanzacco.  Observers L. Donato, M. Gonano, V. Gonano, E. Guido,
    V. Santini, G. Sostero.  0.45-m f/4.4 Newtonian reflector + CCD.
734 Farpoint Observatory.  Observer G. Hug.  0.7-m reflector + CCD.
B03 Alter Satzberg, Vienna.  Observer M. Pietschnig.  0.35-m f/7
    Schmidt-Cassegrain + CCD.
D35 Lulin Observatory.  Observers Q.-z. Ye, H.-C. Lin, C.-S. Lin, C.-Y. Shih.
    Measurer Q.-z. Ye.  0.41-m f/8.8 Ritchey-Chretien + 2Kx2K CCD + f/6.25
    focal reducer.
G96 Mt. Lemmon Survey.  Observer A. Boattini.  Measurers E. C. Beshore,
    A. Boattini, G. J. Garradd, A. R. Gibbs, A. D. Grauer, R. E. Hill,
    R. A. Kowalski, S. M. Larson, R. H. McNaught.  1.5-m reflector + CCD.

Orbital elements:
2007 SV11                                                Earth MOID = 0.1088 AU
Epoch 2007 Oct. 27.0 TT = JDT 2454400.5                 MPC
M  20.56673              (2000.0)            P               Q
n   0.42741992     Peri.   23.47584     +0.65900384     +0.56530416
a   1.7454184      Node   292.28792     -0.74662721     +0.41195975
e   0.4968142      Incl.   32.42458     -0.09089417     +0.71464703
P   2.31           H   18.0           G   0.15           U   8
Residuals in seconds of arc
070927 G96  0.4-  0.2-    070929 B03  0.4+  0.0     070930 B03  0.6+  0.1-
070927 G96  0.4+  0.1-    070929 B03  0.3-  0.6-    070930 B03  0.3+  0.1+
070927 G96  0.2-  0.3-    070929 B03  0.5-  0.9+    070930 B03  0.3-  0.6+
070927 G96  0.3-  0.0     070929 B03  0.1+  0.1-    070930 B03  0.1-  0.7+
070927 G96  0.2-  0.0     070930 246  0.1-  1.0-    070930 473  0.8-  0.1+
070927 G96  0.5-  0.3-    070930 246  0.6+  0.2-    070930 473  0.1+  0.1-
070927 G96  0.2-  0.2-    070930 246  0.0   0.3-    070930 473  0.9+  0.2-
070927 G96  0.1+  0.4-    070930 246  0.7-  0.3-    071001 734  0.4+  0.5-
070927 D35  0.5+  0.8+    070930 246  0.6-  0.1+    071001 734  0.4-  0.3+
070927 D35  1.0+  0.9+    070930 246  0.8+  0.6-    071001 734  0.0   0.2-
070929 B03  0.3-  0.1+    070930 246  0.2+  0.6+    071001 734  0.6-  0.4+
070929 B03  0.4-  0.5-    070930 246  0.5+  0.5-    071001 734  0.2-  0.8+

Ephemeris:
2007 SV11                a,e,i = 1.75, 0.50, 32                  q = 0.8783
Date    TT    R. A. (2000) Decl.     Delta      r     Elong.  Phase     V
2007 09 27    16 18.54   +18 32.9    0.585    0.909    63.6    81.2    19.5
2007 10 07    16 55.01   +26 43.9    0.599    0.949    67.5    76.8    19.5
2007 10 17    17 32.54   +33 46.6    0.617    1.001    72.4    71.6    19.5
2007 10 27    18 13.64   +39 40.6    0.637    1.063    78.0    66.1    19.5
2007 11 06    19 00.67   +44 24.2    0.660    1.132    83.9    60.6    19.5
2007 11 16    19 55.00   +47 49.5    0.689    1.204    89.9    55.3    19.6
2007 11 26    20 55.48   +49 43.8    0.726    1.278    95.2    50.3    19.7
2007 12 06    21 58.14   +50 00.0    0.778    1.352    99.4    46.0    19.9
2007 12 16    22 57.88   +48 51.1    0.847    1.426   102.0    42.4    20.1
2007 12 26    23 51.16   +46 47.0    0.935    1.499   102.8    39.8    20.3
2008 01 05    00 37.08   +44 18.7    1.041    1.571   101.7    37.8    20.6
2008 01 15    01 16.53   +41 50.0    1.165    1.640    99.2    36.3    20.9
2008 01 25    01 50.84   +39 33.9    1.303    1.707    95.6    35.0    21.2
2008 02 04    02 21.26   +37 34.9    1.452    1.772    91.2    33.8    21.5
2008 02 14    02 48.82   +35 53.2    1.611    1.834    86.3    32.5    21.7
2008 02 24    03 14.27   +34 26.8    1.775    1.894    81.2    31.1    22.0

Timothy B. Spahr             (C) Copyright 2007 MPC           M.P.E.C. 2007-T02

Read MPEC 2007-T01 Read MPEC 2007-T03


Our Web policy. Index to the CBAT/MPC/ICQ pages.


Valid HTML 4.01!